Shirley, NY

9:01 PM EST on December 12, 2017 (GMT -0500)
Brookhaven

Weather History for KHWV - September, 2013

Change the Weather History Date:

Thursday, September 19, 2013

  Actual Average (KISP) Record (KISP)
Temperature  
Mean Temperature 60 °F -  
Max Temperature 73 °F 71 °F 85 °F (1983)
Min Temperature 48 °F 55 °F 44 °F (1990)
Degree Days  
Heating Degree Days 5    
Growing Degree Days 10 (Base 50)    
Moisture  
Dew Point 51 °F    
Average Humidity 73    
Maximum Humidity 96    
Minimum Humidity 42    
Precipitation  
Precipitation 0.00 in - - ()
Sea Level Pressure  
Sea Level Pressure 30.15 in    
Wind  
Wind Speed 5 mph (SW)    
Max Wind Speed 13 mph    
Max Gust Speed -    
Visibility 10 miles    
Events      
Averages and records for this station are not official NWS values.
T = Trace of Precipitation, MM = Missing Value Source: NWS Daily Summary

Daily Weather History Graph

Daily Weather History Graph

Search for Another Location

Airport or City:

Trip Planner

Search our weather history database for the weather conditions in past years. The results will help you decide how hot, cold, wet, or windy it might be!

Date:

Astronomy

Sep. 19, 2013 Rise Set
Actual Time 6:36 AM EDT 6:53 PM EDT
Civil Twilight 6:08 AM EDT 7:20 PM EDT
Nautical Twilight 5:36 AM EDT 7:52 PM EDT
Astronomical Twilight 5:03 AM EDT 8:25 PM EDT
Moon 6:49 PM EDT (9/19) 6:42 AM EDT (9/19)
Length of Visible Light 13h 11m
Length of Day
12h 17m
Full, 100% of the Moon is Illuminated
Sep 19
Full
Sep 26
Last Quarter
Oct 4
New
Oct 11
First Quarter
Oct 18
Full

Hourly Weather History & Observations

Time (EDT) Temp. Dew Point Humidity Pressure Visibility Wind Dir Wind Speed Gust Speed Precip Events Conditions
12:56 AM 52.0 °F 48.0 °F 86% 30.21 in 10.0 mi WSW 3.5 mph - N/A   Clear
1:56 AM 53.1 °F 50.0 °F 89% 30.20 in 10.0 mi West 3.5 mph - N/A   Clear
2:56 AM 51.1 °F 48.9 °F 92% 30.19 in 10.0 mi WSW 4.6 mph - N/A   Clear
3:56 AM 51.1 °F 48.0 °F 89% 30.18 in 10.0 mi WSW 3.5 mph - N/A   Clear
4:56 AM 48.9 °F 46.9 °F 93% 30.18 in 10.0 mi West 3.5 mph - N/A   Clear
5:56 AM 48.0 °F 46.9 °F 96% 30.18 in 10.0 mi WSW 3.5 mph - N/A   Clear
6:56 AM 48.0 °F 46.0 °F 93% 30.19 in 10.0 mi SW 3.5 mph - N/A   Clear
7:56 AM 54.0 °F 51.1 °F 90% 30.19 in 10.0 mi Calm Calm - N/A   Clear
8:56 AM 61.0 °F 52.0 °F 72% 30.18 in 10.0 mi WSW 3.5 mph - N/A   Clear
9:56 AM 66.9 °F 50.0 °F 54% 30.18 in 10.0 mi WSW 3.5 mph - N/A   Clear
10:56 AM 70.0 °F 46.0 °F 42% 30.17 in 10.0 mi West 4.6 mph - N/A   Clear
11:56 AM 71.1 °F 50.0 °F 47% 30.16 in 10.0 mi SW 9.2 mph - 0.00 in   Clear
12:56 PM 72.0 °F 51.1 °F 48% 30.15 in 10.0 mi South 9.2 mph - N/A   Clear
1:56 PM 72.0 °F 51.1 °F 48% 30.13 in 10.0 mi South 12.7 mph - N/A   Clear
2:56 PM 71.1 °F 50.0 °F 47% 30.12 in 10.0 mi SSW 11.5 mph - N/A   Clear
3:56 PM 70.0 °F 51.1 °F 51% 30.11 in 10.0 mi SW 10.4 mph - N/A   Clear
4:56 PM 69.1 °F 52.0 °F 54% 30.10 in 10.0 mi SSW 11.5 mph - N/A   Clear
5:56 PM 66.9 °F 53.1 °F 61% 30.10 in 10.0 mi SSW 8.1 mph - N/A   Clear
6:56 PM 64.0 °F 54.0 °F 70% 30.11 in 10.0 mi SSW 5.8 mph - N/A   Clear
7:56 PM 62.1 °F 54.0 °F 75% 30.11 in 10.0 mi South 4.6 mph - N/A   Clear
8:56 PM 61.0 °F 55.0 °F 81% 30.12 in 10.0 mi SW 3.5 mph - N/A   Clear
9:56 PM 59.0 °F 55.0 °F 87% 30.12 in 10.0 mi SSW 3.5 mph - N/A   Clear
10:56 PM 55.9 °F 53.1 °F 90% 30.11 in 10.0 mi Calm Calm - N/A   Clear
11:56 PM 55.0 °F 53.1 °F 93% 30.10 in 9.0 mi Calm Calm - N/A   Clear